Regional Weather Roundup
Issued by NWS

Home | Current Version | Previous Version | Text Only | Print | Product List | Glossary Off
Versions: 1 2 3 4 5 6 7 8 9 10 11 12 13 14 15 16 17 18 19 20 21 22 23 24 25 26 27 28 29 30 31 32 33 34 35 36 37 38 39 40 41 42 43 44 45 46 47 48 49 50

153
ASUS43 KLOT 211703
RWRIL

ILLINOIS REGIONAL WEATHER ROUNDUP
NATIONAL WEATHER SERVICE CHICAGO/ROMEOVILLE IL
1100 AM CST SUN JAN 21 2018

NOTE: "FAIR" INDICATES FEW OR NO CLOUDS BELOW 12,000 FEET WITH NO
SIGNIFICANT WEATHER AND/OR OBSTRUCTIONS TO VISIBILITY.

* THESE STATIONS ARE NOT UNDER NWS QUALITY CONTROL. THEY ALSO MAY NOT
  REPORT WEATHER SUCH AS PRECIPITATION OR FOG.

ILZ001-002-007-009-015-016-024-211800-
NORTHWEST ILLINOIS

CITY           SKY/WX    TMP DP  RH WIND       PRES   REMARKS
MOLINE         CLOUDY    43  41  93 E5        29.90F FOG
STERLING*      CLOUDY    41  39  93 E6        29.93F FOG
SAVANNA*       CLOUDY    41  38  87 E8        29.94S
$$

ILZ003-004-008-010-011-017-018-211800-
NORTH CENTRAL ILLINOIS

CITY           SKY/WX    TMP DP  RH WIND       PRES   REMARKS
ROCKFORD       CLOUDY    39  36  89 E5        29.97F FOG
FREEPORT*        N/A     38  37  97 E6        29.95F WCI  33
ROCHELLE*      CLOUDY    40  40  98 SE6       29.95F FOG
DE KALB*       FOG       38  38  99 SE7       29.96F VSB 1/4 WCI  33
PERU*          CLOUDY    41  39  94 SE5       29.95F FOG
$$

ILZ005-006-012>014-019>023-211800-
NORTHEAST ILLINOIS

CITY           SKY/WX    TMP DP  RH WIND       PRES   REMARKS
CHICAGO-OHARE  FOG       41  39  93 SE5       29.97S VSB 1
CHICAGO-MIDWAY CLOUDY    43  42  97 CALM      29.97F FOG
AURORA         FOG       40  40 100 SE6       29.96F VSB<1/4
LANSING*       CLOUDY    42  42 100 S6        29.98F FOG
JOLIET*        CLOUDY    42  42 100 S3        29.97F FOG
WAUKEGAN       CLOUDY    40  37  89 CALM      29.96F FOG
DUPAGE AIRPORT FOG       40  40 100 SE3       29.96F VSB 1/2
KANKAKEE*      FOG      N/A N/A N/A SE5       29.99F VSB<1/4
WHEELING       CLOUDY    42  40  92 CALM      29.98F FOG
MORRIS*        FOG       41  40  98 SE6       29.96F VSB 1/2
NORTHERLY ISL    N/A     36  34  92 E1          N/A
$$

LMZ740>746-211800-
SOUTHERN LAKE MICHIGAN

STATION/POSITION SKY/WX   TEMP    WIND        PRES    VSBY  WAVE
                          AIR SEA DIR/SP/G                  HT/PER
                          (F)     (DEG/KT/KT) (MB)    (MI)  (FT/S)
HARRISON CRIB              37     130/  9/  9   N/A
BURNHAM HARBOR             36     160/  1/  8   N/A
CALUMET HARBOR             41     190/  4/  5 1014.8F
BURNS HARBOR               41     200/  8/ 12 1016.3F
MICHIGAN CITY              40     130/  7/  8   N/A
$$

ILZ025>027-034>036-040-047-049-050-058-095>099-211800-
WEST-CENTRAL ILLINOIS

CITY           SKY/WX    TMP DP  RH WIND       PRES   REMARKS
QUINCY         CLOUDY    52  48  86 S7        29.88F
MACOMB*        CLOUDY    47  45  93 S8        29.92F
JACKSONVILLE*  CLOUDY    53  50  89 S14       29.92F
PITTSFIELD*    CLOUDY    53  50  89 S7        29.91F
$$

ILZ028>032-037-038-041>044-048-051>054-059>061-211800-
CENTRAL ILLINOIS

CITY           SKY/WX    TMP DP  RH WIND       PRES   REMARKS
BLOOMINGTON    LGT RAIN  43  43 100 S9        29.96F VSB 1/4
DECATUR        FOG       50  50 100 S12       29.97F VSB 1
PEORIA         CLOUDY    47  44  90 SE3       29.94F FOG
LACON*         LGT RAIN  43  43  99 SE3       29.94F
LINCOLN*       CLOUDY    52  52 100 S8        29.94F FOG
SPRINGFIELD    CLOUDY    55  52  89 S12       29.94F
TAYLORVILLE    CLOUDY    51  51 100 S15G21    29.96F FOG
$$

ILZ033-039-045-046-055>057-062-063-211800-
EAST-CENTRAL ILLINOIS

CITY           SKY/WX    TMP DP  RH WIND       PRES   REMARKS
CHAMPAIGN      FOG       47  47 100 S14       29.98F VSB 1/4
DANVILLE*      FOG       44  44 100 S6        29.98F VSB<1/4
RANTOUL*       LGT RAIN  43  43  99 SE6       29.98F VSB<1/4
MATTOON        FOG       47  47 100 S9        29.99F VSB 1/4
$$

ILZ079-100>102-211800-
SOUTHWEST ILLINOIS

CITY           SKY/WX    TMP DP  RH WIND       PRES   REMARKS
ALTON          CLOUDY    57  54  88 SE14      29.96F
BELLEVILLE     CLOUDY    55  52  87 S13       29.95F
CAHOKIA*       PTSUNNY   60  53  77 S14G20    29.94F
SPARTA*        CLOUDY    52  52 100 S13       30.00F
$$

ILZ064>066-069>071-074>076-080>082-084>086-088>090-092>094-211800-
SOUTH-CENTRAL ILLINOIS

CITY           SKY/WX    TMP DP  RH WIND       PRES   REMARKS
CARBONDALE     CLOUDY    53  53 100 S17G26    30.02F
CAIRO*         CLOUDY    50  49  95 S8        30.07F
EFFINGHAM*     FOG       49  49 100 SE6       30.03S VSB 1/4
MT. VERNON     FOG       51  51 100 S10       30.03F VSB 1/2
CENTRALIA*     CLOUDY    53  53 100 S10       30.00F FOG
SALEM*         CLOUDY    54  52  95 S9        30.01F FOG
METROPOLIS*    CLOUDY    54  50  87 S8        30.09S
$$

ILZ067-068-072-073-078-083-087-091-211800-
SOUTHEAST ILLINOIS

CITY           SKY/WX    TMP DP  RH WIND       PRES   REMARKS
LAWRENCEVILLE  CLOUDY    47  44  90 S10       30.06S
FLORA*         FOG       50  50  98 S9        30.04S VSB 1/2
FAIRFIELD*     FOG       49  49 100 S5        30.04S VSB<1/4
HARRISBURG*    CLOUDY    54  53  95 SW10G21   30.06F
ROBINSON*      CLOUDY    47  47  97 S6        30.06S
CARMI*         CLOUDY    48  47  97 S8        30.05F
$$

ABBREVIATIONS USED IN REMARKS
   TC - TEMPERATURE IN CELSIUS
  WCI - WIND CHILL INDEX
   HX - HEAT INDEX
  VSB - VISIBILITY
$$





USA.gov is the U.S. government's official web portal to all federal, state and local government web resources and services.